Cherokee, IA

10:04 PM CDT on September 28, 2016 (GMT -0500)
Cherokee Municipal

Weather History for KCKP - August, 2014

Change the Weather History Date:

Monday, August 11, 2014

  Actual Average Record
Temperature  
Mean Temperature 66 °F -  
Max Temperature 74 °F 81 °F 100 °F (1976)
Min Temperature 59 °F 55 °F 43 °F (1986)
Cooling Degree Days 2    
Growing Degree Days 16 (Base 50)    
Moisture  
Dew Point 59 °F    
Average Humidity 77    
Maximum Humidity 100    
Minimum Humidity 49    
Precipitation  
Precipitation 0.02 in - - ()
Sea Level Pressure  
Sea Level Pressure 30.10 in    
Wind  
Wind Speed 8 mph (NNW)    
Max Wind Speed 21 mph    
Max Gust Speed 26 mph    
Visibility 10 miles    
Events      
Averages and records for this station are not official NWS values.
T = Trace of Precipitation, MM = Missing Value Source: NWS Daily Summary

Daily Weather History Graph

Daily Weather History Graph

Search for Another Location

Airport or City:

Trip Planner

Search our weather history database for the weather conditions in past years. The results will help you decide how hot, cold, wet, or windy it might be!

Date:

Astronomy

Aug. 11, 2014 Rise Set
Actual Time 6:24 AM CDT 8:29 PM CDT
Civil Twilight 5:53 AM CDT 9:00 PM CDT
Nautical Twilight 5:15 AM CDT 9:38 PM CDT
Astronomical Twilight 4:33 AM CDT 10:19 PM CDT
Moon 8:55 PM CDT (8/11) 7:33 AM CDT (8/11)
Length of Visible Light 15h 07m
Length of Day
14h 05m
Full, 99% of the Moon is Illuminated
Aug 11
Full
Aug 17
Last Quarter
Aug 25
New
Sep 2
First Quarter
Sep 8
Full

Hourly Weather History & Observations

Time (CDT) Temp. Dew Point Humidity Pressure Visibility Wind Dir Wind Speed Gust Speed Precip Events Conditions
12:15 AM 65.7 °F 65.7 °F 100% 30.06 in 10.0 mi NNE 3.5 mph - N/A   Clear
12:35 AM 65.8 °F 65.8 °F 100% 30.07 in 10.0 mi Calm Calm - N/A   Mostly Cloudy
12:55 AM 65.7 °F 65.7 °F 100% 30.07 in 10.0 mi Calm Calm - N/A   Mostly Cloudy
1:15 AM 65.3 °F 65.3 °F 100% 30.08 in 10.0 mi Calm Calm - N/A   Scattered Clouds
1:35 AM 64.9 °F 64.9 °F 100% 30.08 in 7.0 mi Calm Calm - N/A   Clear
1:55 AM 64.4 °F 64.4 °F 100% 30.08 in 7.0 mi Calm Calm - N/A   Clear
2:15 AM 64.2 °F 64.2 °F 100% 30.08 in 7.0 mi Calm Calm - N/A   Clear
2:35 AM 64.0 °F 64.0 °F 100% 30.08 in 7.0 mi NNW 3.5 mph - N/A   Scattered Clouds
3:15 AM 64.4 °F 64.4 °F 100% 30.08 in 10.0 mi NW 3.5 mph - N/A   Clear
3:35 AM 63.9 °F 63.7 °F 99% 30.08 in 10.0 mi NNW 6.9 mph - N/A   Clear
3:55 AM 63.7 °F 63.0 °F 97% 30.08 in 10.0 mi NNW 6.9 mph - N/A   Clear
4:15 AM 63.5 °F 62.6 °F 97% 30.08 in 10.0 mi NNW 8.1 mph - N/A   Clear
4:35 AM 63.3 °F 62.1 °F 96% 30.08 in 10.0 mi NNW 8.1 mph - N/A   Scattered Clouds
4:55 AM 62.4 °F 61.5 °F 97% 30.08 in 10.0 mi NNW 6.9 mph - N/A   Clear
5:15 AM 61.7 °F 61.0 °F 97% 30.08 in 10.0 mi NW 6.9 mph - N/A   Clear
5:35 AM 61.0 °F 59.9 °F 96% 30.08 in 10.0 mi NW 5.8 mph - N/A   Clear
5:55 AM 60.4 °F 59.2 °F 96% 30.08 in 10.0 mi NW 4.6 mph - N/A   Clear
6:10 AM 59.9 °F 58.6 °F 96% 30.08 in 10.0 mi NW 5.8 mph - N/A   Clear
6:35 AM 59.2 °F 57.9 °F 96% 30.08 in 10.0 mi NW 8.1 mph - N/A   Clear
6:55 AM 59.0 °F 57.4 °F 94% 30.08 in 10.0 mi NNW 8.1 mph - N/A   Clear
7:15 AM 59.4 °F 57.2 °F 93% 30.09 in 10.0 mi NNW 8.1 mph - N/A   Clear
7:35 AM 59.9 °F 57.2 °F 91% 30.09 in 10.0 mi NNW 10.4 mph - N/A   Clear
7:55 AM 60.4 °F 57.4 °F 90% 30.09 in 10.0 mi NNW 10.4 mph 17.3 mph N/A   Clear
8:15 AM 61.2 °F 57.7 °F 88% 30.10 in 10.0 mi NNW 12.7 mph 18.4 mph N/A   Clear
8:35 AM 61.7 °F 58.3 °F 89% 30.11 in 10.0 mi NW 9.2 mph 16.1 mph N/A   Clear
8:55 AM 62.8 °F 58.6 °F 86% 30.10 in 10.0 mi NNW 12.7 mph 19.6 mph N/A   Clear
9:15 AM 63.7 °F 58.6 °F 84% 30.10 in 10.0 mi NW 9.2 mph 16.1 mph N/A   Clear
9:35 AM 64.8 °F 59.0 °F 82% 30.11 in 10.0 mi NNW 12.7 mph 23.0 mph N/A   Clear
9:55 AM 65.7 °F 58.5 °F 78% 30.11 in 10.0 mi NNW 15.0 mph 23.0 mph N/A   Clear
10:15 AM 66.6 °F 59.4 °F 78% 30.11 in 10.0 mi North 17.3 mph 23.0 mph N/A   Clear
10:35 AM 67.3 °F 59.7 °F 77% 30.12 in 10.0 mi NNW 18.4 mph 24.2 mph N/A   Clear
10:55 AM 68.4 °F 58.6 °F 71% 30.12 in 10.0 mi NNW 17.3 mph 23.0 mph N/A   Clear
11:15 AM 69.6 °F 59.0 °F 69% 30.12 in 10.0 mi NNW 13.8 mph 23.0 mph N/A   Clear
11:35 AM 70.3 °F 59.2 °F 68% 30.12 in 10.0 mi NNW 13.8 mph 21.9 mph N/A   Clear
11:55 AM 71.1 °F 58.5 °F 64% 30.12 in 10.0 mi NNW 20.7 mph 24.2 mph N/A   Scattered Clouds
12:15 PM 70.7 °F 58.5 °F 65% 30.12 in 10.0 mi NNW 17.3 mph 24.2 mph N/A   Scattered Clouds
12:35 PM 71.6 °F 58.3 °F 63% 30.12 in 10.0 mi NNW 16.1 mph 24.2 mph N/A   Scattered Clouds
12:55 PM 72.0 °F 57.9 °F 61% 30.11 in 10.0 mi NNW 15.0 mph 23.0 mph N/A   Scattered Clouds
1:15 PM 72.3 °F 58.5 °F 62% 30.12 in 10.0 mi NNW 16.1 mph 23.0 mph N/A   Scattered Clouds
1:35 PM 72.9 °F 58.1 °F 60% 30.11 in 10.0 mi NNW 16.1 mph 26.5 mph N/A   Scattered Clouds
1:55 PM 73.0 °F 57.6 °F 58% 30.11 in 10.0 mi North 15.0 mph 23.0 mph N/A   Scattered Clouds
2:15 PM 73.8 °F 58.3 °F 58% 30.11 in 10.0 mi NNW 12.7 mph 23.0 mph N/A   Scattered Clouds
2:55 PM 74.3 °F 58.6 °F 58% 30.10 in 10.0 mi North 15.0 mph 24.2 mph N/A   Scattered Clouds
3:15 PM 74.7 °F 58.1 °F 56% 30.10 in 10.0 mi North 15.0 mph 23.0 mph N/A   Scattered Clouds
3:35 PM 74.8 °F 58.3 °F 56% 30.10 in 10.0 mi North 15.0 mph 18.4 mph N/A   Scattered Clouds
3:55 PM 74.5 °F 57.4 °F 55% 30.10 in 10.0 mi North 17.3 mph 25.3 mph N/A   Scattered Clouds
4:15 PM 74.3 °F 56.1 °F 53% 30.09 in 10.0 mi NNW 20.7 mph 25.3 mph N/A   Scattered Clouds
4:55 PM 74.5 °F 55.2 °F 51% 30.09 in 10.0 mi North 13.8 mph 24.2 mph N/A   Scattered Clouds
5:15 PM 74.5 °F 55.6 °F 52% 30.10 in 10.0 mi NNW 15.0 mph 23.0 mph N/A   Scattered Clouds
5:35 PM 74.3 °F 55.4 °F 52% 30.10 in 10.0 mi NNW 11.5 mph 17.3 mph N/A   Scattered Clouds
5:55 PM 73.4 °F 52.9 °F 49% 30.10 in 10.0 mi North 16.1 mph 24.2 mph N/A   Clear
6:15 PM 72.9 °F 53.1 °F 50% 30.10 in 10.0 mi North 13.8 mph 23.0 mph N/A   Clear
6:35 PM 72.7 °F 52.3 °F 49% 30.10 in 10.0 mi NNW 12.7 mph 16.1 mph N/A   Clear
7:15 PM 71.1 °F 53.4 °F 54% 30.10 in 10.0 mi North 11.5 mph - N/A   Clear
7:35 PM 70.2 °F 53.2 °F 55% 30.10 in 10.0 mi North 11.5 mph 16.1 mph N/A   Clear
7:55 PM 68.9 °F 54.1 °F 59% 30.10 in 10.0 mi North 8.1 mph - N/A   Clear
8:15 PM 67.1 °F 54.5 °F 64% 30.10 in 10.0 mi North 8.1 mph - N/A   Clear
8:35 PM 65.3 °F 54.5 °F 68% 30.11 in 10.0 mi NNW 6.9 mph - N/A   Clear
8:55 PM 64.8 °F 54.0 °F 68% 30.11 in 10.0 mi North 8.1 mph - N/A   Clear